"Pseudo-MPEC" for CEJLLE2

Created 2026 Apr 17 11:35:12 UT using Find_Orb

Click here for an explanation of pseudo-MPECs

 
 Astrometry: 
     CEJLLE2*1C2026 04 17.24347612 11 28.784+31 33 53.17   ~4H6Z 20.98GVNEOCPG96
     CEJLLE2 1C2026 04 17.24870012 11 32.906+31 35 36.10   ~4H6Z 21.52GVNEOCPG96
     CEJLLE2 1C2026 04 17.25384612 11 37.028+31 37 17.26   ~4H6Z 20.96GVNEOCPG96
     CEJLLE2 1C2026 04 17.28205712 11 59.586+31 46 33.64   ~4H7K 20.80GVNEOCPI52
     CEJLLE2 1C2026 04 17.28537412 12 02.228+31 47 38.47   ~4H7K 20.54GVNEOCPI52
     CEJLLE2 1C2026 04 17.28868712 12 04.921+31 48 43.56   ~4H7K 21.17GVNEOCPI52
     CEJLLE2 1C2026 04 17.29200412 12 07.585+31 49 48.36   ~4H7K 21.43GVNEOCPI52
     CEJLLE2 1C2026 04 17.42300112 13 56.824+32 31 45.98   ~4HAo 20.76GVNEOCPI52
     CEJLLE2 1C2026 04 17.42655112 13 59.898+32 32 53.16   ~4HAo 20.67GVNEOCPI52
     CEJLLE2 1C2026 04 17.43008612 14 03.052+32 33 59.44   ~4HAo 21.49GVNEOCPI52
     CEJLLE2 1C2026 04 17.43360812 14 06.126+32 35 05.93   ~4HAo 21.44GVNEOCPI52

Station data:
(G96) Mt. Lemmon Survey  (N32.442729 W110.788720)  US/Arizona.  Observer E.
   J. Christensen. Measurers T. Beuden, V. F. Carvajal, D. Fay, J. B.
   Fazekas, D. C. Fuls, A. R. Gibbs, A. D. Grauer, H. Gröller, J. K. Hogan,
   R. A. Kowalski, S. M. Larson, G. J. Leonard, D. Rankin, R. L. Seaman, F.
   C. Shelly, K. W. Wierzchoś. 1.5-m reflector + 10K CCD.
(I52) Steward Observatory, Mt. Lemmon Station  (N32.442570 W110.788920)
   US/Arizona. Measurers T. Beuden, V. F. Carvajal, D. Fay, J. B. Fazekas, D.
   C. Fuls, A. R. Gibbs, A. D. Grauer, H. Gröller, J. K. Hogan, R. A.
   Kowalski, S. M. Larson, G. J. Leonard, D. Rankin, R. L. Seaman, F. C.
   Shelly, K. W. Wierzchoś. 1.0-m prime focus + CCD.

Orbital elements:  CEJLLE2
   Perihelion 2026 May 5.074914 +/- 0.742 TT =  1:47:52.6 (JD 2461165.574914)
Epoch 2026 Apr 17.0 TT = JDT 2461147.5   Earth MOID: 0.0267   Ma: 0.0494
M 347.325467892 +/- 0.41            (J2000 ecliptic)             AutoNEOCP
n   0.701222248 +/- 0.00896         Peri.   23.501624 +/- 0.9
a   1.254774230 +/- 0.0107          Node   201.064319 +/- 0.09
e   0.18914665 +/- 0.00743          Incl.   10.440735 +/- 0.32
P   1.406/513.380d         H 27.01  G  0.15   U  9.6
q 1.017437876 +/- 0.00113    Q 1.492110585 +/- 0.022
From 11 observations 2026 Apr. 17 (4.6 hr); mean residual 0".28
Residuals in arcseconds: 
260417 G96  .24+  .57+    260417 I52  .23-  .07-    260417 I52  .37-  .31+    
260417 G96  .27-  .03-    260417 I52  .17+  .14+    260417 I52  .32+  .25-    
260417 G96  .01-  .70-    260417 I52  .12+  .05+    260417 I52  .03+  .32-    
260417 I52  .03+  .12+    260417 I52  .00   .30+    

Ephemerides (geocentric):
Date (UTC) HH   RA             Dec           delta  r     elong  mag " sig PA
---- --------  ------------   ------------  ------ ------ -----  --- --------
2026 04 17 12  12 15 24.618   +32 57 58.75  .03221 1.0257 132.1 21.4 7.48  70
2026 04 17 13  12 16 03.511   +33 11 30.64  .03223 1.0257 131.9 21.4 8.89  69
2026 04 17 14  12 16 42.555   +33 25 00.43  .03226 1.0256 131.7 21.4 10.4  68
2026 04 17 15  12 17 21.748   +33 38 28.09  .03228 1.0256 131.6 21.4 11.9  67
2026 04 17 16  12 18 01.092   +33 51 53.59  .03231 1.0255 131.4 21.4 13.5  66
2026 04 17 17  12 18 40.585   +34 05 16.88  .03233 1.0255 131.3 21.4 15.2  65
2026 04 17 18  12 19 20.229   +34 18 37.93  .03236 1.0255 131.1 21.4 16.9  64
2026 04 17 19  12 20 00.023   +34 31 56.69  .03239 1.0254 130.9 21.4 18.7  64
2026 04 17 20  12 20 39.967   +34 45 13.14  .03241 1.0254 130.8 21.4 20.5  63
2026 04 17 21  12 21 20.062   +34 58 27.22  .03244 1.0253 130.6 21.4 22.4  62
2026 04 17 22  12 22 00.308   +35 11 38.92  .03247 1.0253 130.4 21.4 24.4  62
2026 04 17 23  12 22 40.703   +35 24 48.19  .03250 1.0253 130.3 21.4 26.5  61
2026 04 18 00  12 23 21.249   +35 37 55.00  .03253 1.0252 130.1 21.4 28.6  61
2026 04 18 01  12 24 01.946   +35 50 59.31  .03256 1.0252 129.9 21.5 30.7  60
2026 04 18 02  12 24 42.793   +36 04 01.08  .03260 1.0252 129.8 21.5 32.9  60
2026 04 18 03  12 25 23.791   +36 17 00.29  .03263 1.0251 129.6 21.5 35.2  59
2026 04 18 04  12 26 04.939   +36 29 56.90  .03266 1.0251 129.5 21.5 37.6  59
2026 04 18 05  12 26 46.238   +36 42 50.88  .03269 1.0250 129.3 21.5 40.0  58
2026 04 18 06  12 27 27.687   +36 55 42.19  .03273 1.0250 129.1 21.5 42.5  58
2026 04 18 07  12 28 09.286   +37 08 30.81  .03276 1.0250 129.0 21.5 45.0  57
2026 04 18 08  12 28 51.036   +37 21 16.69  .03280 1.0249 128.8 21.5 47.6  57
2026 04 18 09  12 29 32.935   +37 33 59.82  .03284 1.0249 128.6 21.5 50.3  57
2026 04 18 10  12 30 14.985   +37 46 40.15  .03287 1.0249 128.5 21.5 53.0  56
2026 04 18 11  12 30 57.185   +37 59 17.67  .03291 1.0248 128.3 21.5 55.7  56
2026 04 18 12  12 31 39.534   +38 11 52.34  .03295 1.0248 128.1 21.5 58.6  56
2026 04 18 13  12 32 22.034   +38 24 24.12  .03299 1.0248 128.0 21.5 61.4  56
2026 04 18 14  12 33 04.682   +38 36 53.00  .03303 1.0247 127.8 21.5 64.4  55
2026 04 18 15  12 33 47.481   +38 49 18.95  .03307 1.0247 127.6 21.6 67.4  55
2026 04 18 16  12 34 30.428   +39 01 41.93  .03311 1.0246 127.5 21.6 70.4  55
2026 04 18 17  12 35 13.525   +39 14 01.92  .03315 1.0246 127.3 21.6 73.5  55
2026 04 18 18  12 35 56.770   +39 26 18.90  .03319 1.0246 127.2 21.6 76.7  54
2026 04 18 19  12 36 40.164   +39 38 32.84  .03324 1.0245 127.0 21.6 79.9  54
2026 04 18 20  12 37 23.706   +39 50 43.70  .03328 1.0245 126.8 21.6 83.2  54
2026 04 18 21  12 38 07.397   +40 02 51.48  .03332 1.0245 126.7 21.6 86.5  54
2026 04 18 22  12 38 51.235   +40 14 56.14  .03337 1.0244 126.5 21.6 89.8  54
2026 04 18 23  12 39 35.221   +40 26 57.66  .03341 1.0244 126.3 21.6 93.3  54
2026 04 19 00  12 40 19.355   +40 38 56.02  .03346 1.0244 126.2 21.6 96.7  53
2026 04 19 01  12 41 03.635   +40 50 51.19  .03351 1.0243 126.0 21.6  100  53
2026 04 19 02  12 41 48.062   +41 02 43.15  .03355 1.0243 125.8 21.6  104  53
2026 04 19 03  12 42 32.636   +41 14 31.88  .03360 1.0243 125.7 21.6  107  53
2026 04 19 04  12 43 17.356   +41 26 17.36  .03365 1.0242 125.5 21.6  111  53
2026 04 19 05  12 44 02.221   +41 37 59.57  .03370 1.0242 125.4 21.7  115  53
2026 04 19 06  12 44 47.232   +41 49 38.49  .03375 1.0241 125.2 21.7  118  53
2026 04 19 07  12 45 32.388   +42 01 14.10  .03380 1.0241 125.0 21.7  122  53
2026 04 19 08  12 46 17.688   +42 12 46.37  .03385 1.0241 124.9 21.7  126  53
2026 04 19 09  12 47 03.132   +42 24 15.30  .03390 1.0240 124.7 21.7  130  52
2026 04 19 10  12 47 48.721   +42 35 40.86  .03395 1.0240 124.6 21.7  134  52
2026 04 19 11  12 48 34.452   +42 47 03.04  .03400 1.0240 124.4 21.7  138  52